Back to catalog

STARLINK-34283

AliveCommunicationsVLEO
NORAD 64214·PAYLOAD·🇺🇸 United States

Launched May 31, 2025 from Vandenberg Space Force Base

Loading…

Next Passes (next 24 hours)

TLE

FreshSource: CelesTrak SupGP

Epoch: Sep 14, 2026, 15:46 UTC

1 64214C 25117M   26257.65743056 -.00020281  00000+0 -59929-3 0  2579
2 64214  53.1584 237.3590 0001437  84.5355 184.9089 15.34395945    17

Track STARLINK-34283 in real time with AllMySat

Download on the App Store